カタログに戻る

SL-16 DEB

運用中LEO
NORAD 19128·DEBRIS·🇷🇺 Russia

打ち上げ May 15, 1988 から Baikonur Cosmodrome

Loading…

次のパス (今後24時間)

TLE

最新Source: Space-Track

元期: Sep 13, 2026, 20:15 UTC

1 19128U 88039F   26256.84420486  .00000045  00000-0  81896-4 0  9991
2 19128  70.9832  45.4750 0201573 131.5194  19.4788 13.72886551919247

AllMySatでSL-16 DEBをリアルタイム追跡

Download on the App Store